SCISAT 1

Last updated on Sat Apr 13 2024 01:03:19 GMT+0100 (British Summer Time)

1 27858U 03036A 24103.59738721 .00000959 00000+0 13459-3 0 9991 2 27858 73.9314 309.5607 0008246 201.3103 158.7730 14.78978933113712
UTC large
Height (km)
Speed (km/s)
/
Latitude / Longitude
Inclination (degrees)
Orbital Period (minutes)
Azimuth
Elevation
Range (km)
Doppler Factor

Next 0 passes for location: London (51.5072 / 0.1276)

Sorry there are no passes over London.